Sylvania, GA

6:44 PM EDT on April 30, 2017 (GMT -0400)
Plantation

Weather History for KJYL - March, 2014

Change the Weather History Date:

Thursday, March 20, 2014

  Actual Average (KSAV) Record (KSAV)
Temperature  
Mean Temperature 60 °F -  
Max Temperature 75 °F 73 °F 90 °F (1907)
Min Temperature 45 °F 49 °F 32 °F (1923)
Degree Days  
Heating Degree Days 5    
Growing Degree Days 10 (Base 50)    
Moisture  
Dew Point 45 °F    
Average Humidity 65    
Maximum Humidity 92    
Minimum Humidity 24    
Precipitation  
Precipitation 0.00 in - - ()
Sea Level Pressure  
Sea Level Pressure 30.05 in    
Wind  
Wind Speed 2 mph (NW)    
Max Wind Speed 13 mph    
Max Gust Speed 21 mph    
Visibility 9 miles    
Events      
Averages and records for this station are not official NWS values.
T = Trace of Precipitation, MM = Missing Value Source: NWS Daily Summary

Daily Weather History Graph

Daily Weather History Graph

Search for Another Location

Airport or City:

Trip Planner

Search our weather history database for the weather conditions in past years. The results will help you decide how hot, cold, wet, or windy it might be!

Date:

Astronomy

Mar. 20, 2014 Rise Set
Actual Time 7:30 AM EDT 7:37 PM EDT
Civil Twilight 7:05 AM EDT 8:02 PM EDT
Nautical Twilight 6:36 AM EDT 8:31 PM EDT
Astronomical Twilight 6:08 AM EDT 9:00 PM EDT
Moon 11:42 PM EDT (3/20) 9:48 AM EDT (3/20)
Length of Visible Light 12h 56m
Length of Day
12h 07m
Waning Gibbous, 84% of the Moon is Illuminated
Mar 20
Waning Gibbous
Mar 23
Last Quarter
Mar 30
New
Apr 7
First Quarter
Apr 15
Full

Hourly Weather History & Observations

Time (EDT) Temp. Dew Point Humidity Pressure Visibility Wind Dir Wind Speed Gust Speed Precip Events Conditions
12:15 AM 48.7 °F 46.2 °F 91% 30.08 in 7.0 mi Calm Calm - N/A   Clear
12:35 AM 50.0 °F 47.3 °F 90% 30.07 in 10.0 mi Calm Calm - N/A   Clear
12:55 AM 50.2 °F 47.7 °F 91% 30.07 in 10.0 mi Calm Calm - N/A   Clear
1:15 AM 50.0 °F 47.3 °F 90% 30.07 in 10.0 mi Calm Calm - N/A   Clear
1:35 AM 50.0 °F 47.5 °F 91% 30.07 in 10.0 mi Calm Calm - N/A   Clear
2:15 AM 49.3 °F 46.8 °F 91% 30.06 in 5.0 mi Calm Calm - N/A   Clear
2:35 AM 49.1 °F 46.4 °F 90% 30.06 in 5.0 mi Calm Calm - N/A   Clear
2:55 AM 48.2 °F 45.7 °F 91% 30.06 in 5.0 mi Calm Calm - N/A   Clear
3:15 AM 48.2 °F 45.9 °F 92% 30.05 in 5.0 mi Calm Calm - N/A   Clear
3:35 AM 48.2 °F 45.9 °F 92% 30.05 in 7.0 mi Calm Calm - N/A   Clear
3:55 AM 48.2 °F 45.9 °F 92% 30.04 in 7.0 mi Calm Calm - N/A   Clear
4:15 AM 48.2 °F 45.9 °F 92% 30.04 in 7.0 mi Calm Calm - N/A   Clear
4:35 AM 48.2 °F 45.9 °F 92% 30.04 in 5.0 mi Calm Calm - N/A   Clear
4:55 AM 47.5 °F 45.1 °F 92% 30.04 in 10.0 mi Calm Calm - N/A   Clear
5:15 AM 46.8 °F 44.6 °F 92% 30.05 in 5.0 mi Calm Calm - N/A   Clear
5:35 AM 46.0 °F 43.7 °F 92% 30.05 in 5.0 mi Calm Calm - N/A   Clear
5:55 AM 47.5 °F 45.1 °F 92% 30.05 in 7.0 mi Calm Calm - N/A   Clear
6:15 AM 47.3 °F 44.8 °F 91% 30.06 in 7.0 mi Calm Calm - N/A   Clear
6:35 AM 45.7 °F 43.5 °F 92% 30.07 in 4.0 mi Calm Calm - N/A   Clear
6:55 AM 48.7 °F 46.6 °F 92% 30.07 in 7.0 mi Calm Calm - N/A   Clear
7:15 AM 47.7 °F 45.3 °F 92% 30.07 in 7.0 mi Calm Calm - N/A   Clear
7:35 AM 46.6 °F 44.2 °F 92% 30.08 in 4.0 mi Calm Calm - N/A   Clear
7:55 AM 45.9 °F 43.7 °F 92% 30.08 in 2.5 mi Calm Calm - N/A   Clear
8:15 AM 47.3 °F 45.0 °F 92% 30.08 in 5.0 mi Calm Calm - N/A   Clear
8:35 AM 48.6 °F 46.4 °F 92% 30.08 in 5.0 mi Calm Calm - N/A   Clear
8:55 AM 50.4 °F 48.2 °F 92% 30.09 in 7.0 mi Calm Calm - N/A   Clear
9:15 AM 54.5 °F 52.3 °F 92% 30.09 in 7.0 mi Calm Calm - N/A   Clear
9:35 AM 55.4 °F 52.2 °F 89% 30.09 in 10.0 mi North - - N/A   Clear
9:55 AM 56.3 °F 51.4 °F 84% 30.09 in 10.0 mi Calm Calm - N/A   Clear
10:15 AM 58.8 °F 53.2 °F 82% 30.10 in 10.0 mi Calm Calm - N/A   Clear
10:35 AM 61.0 °F 53.4 °F 76% 30.11 in 10.0 mi NW 3.5 mph - N/A   Clear
10:55 AM 62.2 °F 52.9 °F 71% 30.10 in 10.0 mi WNW 3.5 mph - N/A   Clear
11:15 AM 63.5 °F 53.1 °F 69% 30.10 in 10.0 mi Calm Calm - N/A   Clear
11:35 AM 65.3 °F 52.2 °F 62% 30.10 in 10.0 mi WNW 4.6 mph - N/A   Clear
11:55 AM 66.9 °F 51.1 °F 57% 30.09 in 10.0 mi NNW 3.5 mph - N/A   Clear
12:15 PM 67.6 °F 51.4 °F 56% 30.09 in 10.0 mi WNW 4.6 mph - N/A   Clear
12:35 PM 69.1 °F 50.9 °F 52% 30.08 in 10.0 mi WNW 5.8 mph - N/A   Clear
12:55 PM 69.8 °F 50.7 °F 51% 30.07 in 10.0 mi WNW 6.9 mph - N/A   Clear
1:15 PM 70.7 °F 50.0 °F 48% 30.06 in 10.0 mi NW 10.4 mph - N/A   Clear
1:35 PM 71.1 °F 50.0 °F 47% 30.05 in 10.0 mi WNW 11.5 mph 16.1 mph N/A   Clear
1:55 PM 72.3 °F 48.6 °F 43% 30.04 in 10.0 mi WNW 12.7 mph - N/A   Clear
2:15 PM 72.7 °F 47.5 °F 41% 30.03 in 10.0 mi WNW 8.1 mph 17.3 mph N/A   Clear
2:35 PM 73.6 °F 44.8 °F 36% 30.02 in 10.0 mi WNW 8.1 mph - N/A   Clear
2:55 PM 74.5 °F 40.5 °F 29% 30.01 in 10.0 mi NW 12.7 mph 20.7 mph N/A   Clear
3:15 PM 74.5 °F 40.1 °F 29% 30.01 in 10.0 mi NNW 6.9 mph 20.7 mph N/A   Clear
3:35 PM 75.0 °F 39.6 °F 28% 30.01 in 10.0 mi NW 12.7 mph 17.3 mph N/A   Clear
3:55 PM 75.0 °F 39.4 °F 28% 30.00 in 10.0 mi NW 8.1 mph - N/A   Clear
4:15 PM 75.6 °F 37.9 °F 26% 29.99 in 10.0 mi North 10.4 mph - N/A   Clear
4:35 PM 75.0 °F 36.3 °F 25% 29.99 in 10.0 mi NW 11.5 mph - N/A   Clear
4:55 PM 75.2 °F 35.6 °F 24% 29.99 in 10.0 mi NW 9.2 mph - N/A   Clear
5:15 PM 74.8 °F 36.7 °F 25% 29.98 in 10.0 mi WNW 9.2 mph - N/A   Clear
5:35 PM 75.2 °F 36.3 °F 24% 29.99 in 10.0 mi NW 6.9 mph 10.4 mph N/A   Clear
5:55 PM 74.8 °F 35.4 °F 24% 29.98 in 10.0 mi NW 9.2 mph - N/A   Clear
6:15 PM 74.7 °F 35.2 °F 24% 29.99 in 10.0 mi NW 8.1 mph - N/A   Clear
6:35 PM 73.8 °F 36.0 °F 25% 29.99 in 10.0 mi NW 10.4 mph - N/A   Clear
6:55 PM 73.4 °F 35.4 °F 25% 29.99 in 10.0 mi NNW 8.1 mph - N/A   Clear
7:15 PM 71.8 °F 36.9 °F 28% 30.00 in 10.0 mi NW 6.9 mph - N/A   Clear
7:35 PM 69.3 °F 41.4 °F 36% 30.00 in 10.0 mi NW 4.6 mph - N/A   Clear
7:55 PM 65.3 °F 40.6 °F 40% 30.01 in 10.0 mi Calm Calm - N/A   Clear
8:15 PM 62.4 °F 43.7 °F 50% 30.02 in 10.0 mi Calm Calm - N/A   Clear
8:35 PM 60.6 °F 42.6 °F 52% 30.02 in 10.0 mi Calm Calm - N/A   Clear
8:55 PM 59.0 °F 46.2 °F 63% 30.03 in 10.0 mi Calm Calm - N/A   Clear
9:15 PM 57.9 °F 46.0 °F 65% 30.04 in 10.0 mi Calm Calm - N/A   Clear
9:35 PM 57.7 °F 47.7 °F 69% 30.04 in 10.0 mi Calm Calm - N/A   Clear
9:55 PM 56.8 °F 42.3 °F 58% 30.05 in 10.0 mi Calm Calm - N/A   Clear
10:15 PM 55.6 °F 43.9 °F 65% 30.05 in 10.0 mi Calm Calm - N/A   Clear
10:35 PM 54.3 °F 43.5 °F 67% 30.05 in 10.0 mi Calm Calm - N/A   Clear
10:55 PM 53.1 °F 41.9 °F 66% 30.06 in 10.0 mi Calm Calm - N/A   Clear
11:15 PM 51.4 °F 42.6 °F 72% 30.06 in 10.0 mi WNW 3.5 mph - N/A   Clear
11:35 PM 52.7 °F 42.4 °F 68% 30.07 in 10.0 mi NW 3.5 mph - N/A   Clear
11:55 PM 51.3 °F 38.7 °F 62% 30.07 in 10.0 mi Calm Calm - N/A   Clear